Repton, AL

3:20 PM CDT on September 25, 2016 (GMT -0500)
Middleton

Weather History for KGZH - January, 2013

Change the Weather History Date:

Monday, January 7, 2013

  Actual Average (KPRN) Record (KPRN)
Temperature  
Mean Temperature 45 °F -  
Max Temperature 60 °F 59 °F 77 °F (1989)
Min Temperature 30 °F 38 °F 12 °F (2014)
Degree Days  
Heating Degree Days 20    
Moisture  
Dew Point 32 °F    
Average Humidity 80    
Maximum Humidity 93    
Minimum Humidity 35    
Precipitation  
Precipitation 0.00 in - - ()
Sea Level Pressure  
Sea Level Pressure 30.30 in    
Wind  
Wind Speed 1 mph (ENE)    
Max Wind Speed 10 mph    
Max Gust Speed 16 mph    
Visibility 6 miles    
Events      
Averages and records for this station are not official NWS values.
T = Trace of Precipitation, MM = Missing Value Source: NWS Daily Summary

Daily Weather History Graph

Daily Weather History Graph

Search for Another Location

Airport or City:

Trip Planner

Search our weather history database for the weather conditions in past years. The results will help you decide how hot, cold, wet, or windy it might be!

Date:

Astronomy

Jan. 07, 2013 Rise Set
Actual Time 6:48 AM CST 5:01 PM CST
Civil Twilight 6:21 AM CST 5:27 PM CST
Nautical Twilight 5:51 AM CST 5:57 PM CST
Astronomical Twilight 5:22 AM CST 6:27 PM CST
Moon 2:15 AM CST (1/7) 1:08 PM CST (1/7)
Length of Visible Light 11h 06m
Length of Day
10h 12m
Waning Crescent, 22% of the Moon is Illuminated
Jan 7
Waning Crescent
Jan 11
New
Jan 18
First Quarter
Jan 26
Full
Feb 3
Last Quarter

Hourly Weather History & Observations

Time (CST) Temp. Windchill Dew Point Humidity Pressure Visibility Wind Dir Wind Speed Gust Speed Precip Events Conditions
12:53 AM 37.0 °F - 34.0 °F 89% 30.31 in 8.0 mi Calm Calm - N/A   Clear
1:31 AM 35.6 °F - 33.8 °F 93% 30.30 in 5.0 mi Calm Calm - N/A   Clear
1:35 AM 35.6 °F - 33.8 °F 93% 30.30 in 1.8 mi Calm Calm - N/A   Clear
1:44 AM 35.6 °F - 33.8 °F 93% 30.30 in 3.0 mi Calm Calm - N/A   Clear
1:53 AM 35.1 °F - 32.0 °F 89% 30.30 in 1.8 mi Calm Calm - N/A   Clear
2:03 AM 35.6 °F - 32.0 °F 87% 30.30 in 3.0 mi Calm Calm - N/A   Clear
2:26 AM 33.8 °F - 30.2 °F 87% 30.29 in 1.8 mi Calm Calm - N/A   Clear
2:38 AM 33.8 °F - 30.2 °F 87% 30.28 in 3.0 mi Calm Calm - N/A   Clear
2:53 AM 34.0 °F - 30.9 °F 89% 30.29 in 6.0 mi Calm Calm - N/A   Clear
3:42 AM 33.8 °F - 30.2 °F 87% 30.30 in 2.5 mi Calm Calm - N/A   Clear
3:51 AM 33.8 °F - 30.2 °F 87% 30.30 in 6.0 mi Calm Calm - N/A   Partly Cloudy
3:52 AM 33.1 °F - 30.9 °F 92% 30.30 in 6.0 mi Calm Calm - N/A   Partly Cloudy
3:59 AM 30.2 °F - 28.4 °F 93% 30.30 in 2.0 mi Calm Calm - N/A   Mostly Cloudy
4:17 AM 32.0 °F - 30.2 °F 93% 30.30 in 1.8 mi Calm Calm - N/A   Scattered Clouds
4:37 AM 32.0 °F - 28.4 °F 87% 30.31 in 0.8 mi Calm Calm - N/A   Mist
4:46 AM 32.0 °F - 28.4 °F 87% 30.30 in 1.2 mi Calm Calm - N/A   Partly Cloudy
4:50 AM 30.2 °F - 28.4 °F 93% 30.30 in 3.0 mi Calm Calm - N/A   Partly Cloudy
4:53 AM 30.9 °F 27.5 °F 28.9 °F 92% 30.31 in 3.0 mi NNW 3.5 mph - N/A   Partly Cloudy
5:14 AM 30.2 °F - 28.4 °F 93% 30.31 in 4.0 mi Calm Calm - N/A   Mostly Cloudy
5:26 AM 30.2 °F - 28.4 °F 93% 30.31 in 4.0 mi Calm Calm - N/A   Scattered Clouds
5:53 AM 30.9 °F - 28.0 °F 89% 30.32 in 5.0 mi Calm Calm - N/A   Clear
6:53 AM 30.0 °F - 27.0 °F 88% 30.32 in 4.0 mi Calm Calm - N/A   Clear
7:53 AM 36.0 °F 33.3 °F 33.1 °F 89% 30.34 in 7.0 mi North 3.5 mph - N/A   Clear
8:53 AM 43.0 °F 39.5 °F 37.0 °F 80% 30.35 in 10.0 mi NE 5.8 mph - N/A   Clear
9:53 AM 48.0 °F - 36.0 °F 63% 30.36 in 10.0 mi East 10.4 mph - N/A   Clear
10:53 AM 53.1 °F - 35.1 °F 50% 30.34 in 10.0 mi Variable 6.9 mph - N/A   Clear
11:53 AM 55.9 °F - 34.0 °F 44% 30.30 in 10.0 mi East 10.4 mph 16.1 mph N/A   Clear
12:53 PM 57.0 °F - 34.0 °F 42% 30.27 in 10.0 mi SSE 5.8 mph - N/A   Clear
1:53 PM 60.1 °F - 34.0 °F 38% 30.26 in 10.0 mi East 6.9 mph - N/A   Clear
2:53 PM 60.1 °F - 32.0 °F 35% 30.26 in 10.0 mi ENE 5.8 mph - N/A   Clear
3:53 PM 60.1 °F - 32.0 °F 35% 30.26 in 10.0 mi East 5.8 mph - N/A   Clear
5:53 PM 46.9 °F - 37.9 °F 71% 30.27 in 10.0 mi Calm Calm - N/A   Clear
6:53 PM 43.0 °F - 37.9 °F 82% 30.27 in 10.0 mi Calm Calm - N/A   Clear
7:53 PM 41.0 °F - 37.0 °F 86% 30.28 in 10.0 mi Calm Calm - N/A   Clear
8:53 PM 39.0 °F - 36.0 °F 89% 30.29 in 10.0 mi Calm Calm - N/A   Clear
9:53 PM 37.9 °F - 35.1 °F 89% 30.27 in 10.0 mi Calm Calm - N/A   Clear
10:53 PM 37.9 °F - 35.1 °F 89% 30.26 in 10.0 mi Calm Calm - N/A   Clear
11:53 PM 37.9 °F - 35.1 °F 89% 30.25 in 10.0 mi Calm Calm - N/A   Clear